Location: 3 Angels Observatory
(30.5437°N, 88.5068°W)
Time: 13:13:20
(UTC-05:00)

Oscar 19 - Visible Passes

Search period start: 01 August 2015 00:00
Search period end: 11 August 2015 00:00
Orbit: 774 x 791 km, 98.5° (Epoch: 31 July)

Date Brightness Start Highest point End Pass type
(mag) Time Alt. Az. Time Alt. Az. Time Alt. Az.
01 Aug 13.3 01:34:40 10° NE 01:35:35 14° NE 01:35:35 14° NE visible
01 Aug 12.5 03:13:51 10° NNW 03:16:08 21° NW 03:16:08 21° NW visible
02 Aug 12.4 02:41:34 10° N 02:43:58 27° N 02:43:58 27° N visible
03 Aug 12.8 02:09:51 10° NNE 02:11:47 23° NNE 02:11:47 23° NNE visible
03 Aug 13.0 03:51:52 10° NW 03:52:21 11° NW 03:52:21 11° NW visible
04 Aug 13.3 01:38:43 10° NE 01:39:37 14° NE 01:39:37 14° NE visible
04 Aug 12.6 03:18:10 10° NNW 03:20:10 19° NW 03:20:10 19° NW visible
05 Aug 12.5 02:45:48 10° N 02:48:00 25° N 02:48:00 25° N visible
06 Aug 12.8 02:14:00 10° NNE 02:15:49 22° NNE 02:15:49 22° NNE visible
07 Aug 13.3 01:42:46 10° NE 01:43:39 14° NE 01:43:39 14° NE visible
07 Aug 12.7 03:22:30 10° NNW 03:24:12 17° NW 03:24:12 17° NW visible
08 Aug 12.6 02:50:02 10° N 02:52:01 23° N 02:52:01 23° N visible
09 Aug 12.9 02:18:09 10° NNE 02:19:50 21° NNE 02:19:50 21° NNE visible
10 Aug 13.3 01:46:51 10° NNE 01:47:40 14° NE 01:47:40 14° NE visible
10 Aug 12.8 03:26:51 10° NNW 03:28:13 15° NW 03:28:13 15° NW visible
